TimeEST,TemperatureF,Dew PointF,Humidity,Sea Level PressureIn,VisibilityMPH,Wind Direction,Wind SpeedMPH,Gust SpeedMPH,PrecipitationIn,Events,Conditions,WindDirDegrees,DateUTC
12:15 AM,33.8,32.0,93,30.08,3.0,Calm,Calm,-,N/A,,Mostly Cloudy,0,2013-01-18 05:15:00
12:35 AM,33.8,32.0,93,30.09,5.0,Calm,Calm,-,N/A,,Scattered Clouds,0,2013-01-18 05:35:00
12:55 AM,33.8,32.0,93,30.10,5.0,Calm,Calm,-,N/A,,Clear,0,2013-01-18 05:55:00
1:15 AM,33.8,32.0,93,30.12,5.0,WSW,3.5,-,0.01,,Clear,250,2013-01-18 06:15:00
1:35 AM,33.8,32.0,93,30.13,5.0,WSW,3.5,-,0.01,,Clear,250,2013-01-18 06:35:00
1:55 AM,33.8,32.0,93,30.15,7.0,WSW,3.5,-,0.01,,Clear,240,2013-01-18 06:55:00
2:15 AM,33.8,30.2,87,30.15,5.0,WSW,3.5,-,0.03,,Clear,240,2013-01-18 07:15:00
2:35 AM,33.8,30.2,87,30.14,5.0,Calm,Calm,-,0.07,,Clear,0,2013-01-18 07:35:00
2:55 AM,33.8,30.2,87,30.15,7.0,WSW,3.5,-,0.10,,Clear,240,2013-01-18 07:55:00
3:15 AM,30.2,30.2,100,30.15,5.0,West,3.5,-,0.03,,Clear,270,2013-01-18 08:15:00
3:35 AM,30.2,30.2,100,30.16,5.0,West,5.8,-,0.06,,Clear,270,2013-01-18 08:35:00
3:55 AM,32.0,30.2,93,30.16,5.0,West,3.5,-,0.10,,Clear,260,2013-01-18 08:55:00
4:15 AM,32.0,28.4,87,30.17,10.0,West,5.8,-,0.02,,Clear,270,2013-01-18 09:15:00
4:35 AM,32.0,28.4,87,30.19,10.0,West,3.5,-,0.04,,Clear,270,2013-01-18 09:35:00
4:55 AM,30.2,28.4,93,30.19,3.0,Calm,Calm,-,0.06,,Clear,0,2013-01-18 09:55:00
5:15 AM,30.2,28.4,93,30.20,2.0,Calm,Calm,-,0.03,,Clear,0,2013-01-18 10:15:00
5:35 AM,30.2,28.4,93,30.21,3.0,SW,3.5,-,0.04,,Clear,220,2013-01-18 10:35:00
5:55 AM,30.2,28.4,93,30.22,10.0,WSW,4.6,-,0.06,,Clear,250,2013-01-18 10:55:00
6:15 AM,30.2,26.6,86,30.23,10.0,West,4.6,-,0.01,,Clear,270,2013-01-18 11:15:00
6:35 AM,30.2,26.6,86,30.24,10.0,West,5.8,-,0.02,,Clear,280,2013-01-18 11:35:00
6:55 AM,28.4,24.8,86,30.26,10.0,WNW,6.9,-,0.03,,Clear,290,2013-01-18 11:55:00
7:15 AM,30.2,26.6,86,30.28,10.0,Calm,Calm,-,N/A,,Clear,0,2013-01-18 12:15:00
7:35 AM,28.4,26.6,93,30.30,7.0,ENE,5.8,-,0.01,,Clear,70,2013-01-18 12:35:00
7:55 AM,33.8,24.8,70,30.33,10.0,North,6.9,-,0.01,,Clear,10,2013-01-18 12:55:00
8:15 AM,33.8,24.8,70,30.34,10.0,NNW,3.5,-,N/A,,Clear,330,2013-01-18 13:15:00
8:35 AM,33.8,24.8,70,30.35,10.0,NW,5.8,-,N/A,,Clear,320,2013-01-18 13:35:00
8:55 AM,33.8,26.6,75,30.37,10.0,NNE,3.5,-,0.01,,Clear,30,2013-01-18 13:55:00
9:15 AM,33.8,26.6,75,30.39,10.0,ENE,8.1,-,0.01,,Clear,60,2013-01-18 14:15:00
9:35 AM,33.8,26.6,75,30.41,10.0,North,9.2,-,0.01,,Clear,10,2013-01-18 14:35:00
9:55 AM,35.6,26.6,70,30.42,10.0,NE,4.6,-,0.01,,Clear,40,2013-01-18 14:55:00
10:15 AM,35.6,28.4,75,30.43,10.0,NE,3.5,-,0.01,,Clear,50,2013-01-18 15:15:00
10:35 AM,35.6,26.6,70,30.43,10.0,North,4.6,-,0.03,,Clear,10,2013-01-18 15:35:00
10:55 AM,35.6,26.6,70,30.45,10.0,NE,3.5,-,0.04,,Clear,50,2013-01-18 15:55:00
11:15 AM,35.6,24.8,65,30.44,10.0,NE,4.6,-,0.02,,Clear,40,2013-01-18 16:15:00
11:35 AM,35.6,23.0,60,30.44,10.0,NE,5.8,-,0.03,,Clear,40,2013-01-18 16:35:00
11:55 AM,37.4,23.0,56,30.43,10.0,NNE,6.9,-,0.03,,Clear,30,2013-01-18 16:55:00
12:15 PM,37.4,24.8,60,30.43,10.0,NE,4.6,-,N/A,,Clear,40,2013-01-18 17:15:00
12:35 PM,37.4,24.8,60,30.43,10.0,North,5.8,-,N/A,,Clear,10,2013-01-18 17:35:00
12:55 PM,37.4,23.0,56,30.43,10.0,Calm,Calm,-,N/A,,Clear,0,2013-01-18 17:55:00
1:15 PM,37.4,19.4,48,30.43,10.0,Calm,Calm,-,N/A,,Clear,0,2013-01-18 18:15:00
1:35 PM,37.4,19.4,48,30.43,10.0,Calm,Calm,-,N/A,,Clear,0,2013-01-18 18:35:00
1:55 PM,39.2,19.4,45,30.44,10.0,ENE,3.5,-,N/A,,Clear,60,2013-01-18 18:55:00
2:15 PM,39.2,21.2,49,30.44,10.0,Calm,Calm,-,N/A,,Clear,0,2013-01-18 19:15:00
2:35 PM,39.2,19.4,45,30.44,10.0,Calm,Calm,-,N/A,,Clear,0,2013-01-18 19:35:00
2:55 PM,39.2,21.2,49,30.45,10.0,Calm,Calm,-,N/A,,Clear,0,2013-01-18 19:55:00
3:15 PM,39.2,21.2,49,30.45,10.0,Calm,Calm,-,N/A,,Clear,0,2013-01-18 20:15:00
3:35 PM,39.2,24.8,56,30.46,10.0,SW,3.5,-,N/A,,Clear,220,2013-01-18 20:35:00
3:55 PM,39.2,24.8,56,30.46,10.0,SSE,3.5,-,N/A,,Clear,150,2013-01-18 20:55:00
4:15 PM,39.2,24.8,56,30.46,10.0,SSE,3.5,-,N/A,,Clear,160,2013-01-18 21:15:00
4:35 PM,37.4,26.6,65,30.46,10.0,Calm,Calm,-,N/A,,Clear,0,2013-01-18 21:35:00
4:55 PM,37.4,24.8,60,30.46,10.0,SSE,3.5,-,N/A,,Clear,160,2013-01-18 21:55:00
5:15 PM,33.8,26.6,75,30.46,10.0,Calm,Calm,-,N/A,,Clear,0,2013-01-18 22:15:00
5:35 PM,30.2,28.4,93,30.46,10.0,Calm,Calm,-,N/A,,Clear,0,2013-01-18 22:35:00
5:55 PM,32.0,28.4,87,30.46,10.0,SSE,3.5,-,N/A,,Clear,160,2013-01-18 22:55:00
6:15 PM,32.0,26.6,80,30.47,10.0,South,3.5,-,N/A,,Clear,170,2013-01-18 23:15:00
6:35 PM,32.0,26.6,80,30.48,10.0,SSE,3.5,-,N/A,,Clear,160,2013-01-18 23:35:00
6:55 PM,33.8,24.8,70,30.48,10.0,SSE,3.5,-,N/A,,Clear,160,2013-01-18 23:55:00
7:15 PM,32.0,24.8,75,30.48,10.0,SSE,3.5,-,N/A,,Clear,160,2013-01-19 00:15:00
7:35 PM,33.8,24.8,70,30.48,10.0,SSE,4.6,-,N/A,,Clear,160,2013-01-19 00:35:00
7:55 PM,33.8,26.6,75,30.47,10.0,SSE,4.6,-,N/A,,Clear,160,2013-01-19 00:55:00
8:15 PM,32.0,26.6,80,30.47,10.0,South,4.6,-,N/A,,Clear,170,2013-01-19 01:15:00
8:35 PM,32.0,24.8,75,30.47,10.0,SSE,3.5,-,N/A,,Clear,160,2013-01-19 01:35:00
8:55 PM,32.0,24.8,75,30.47,10.0,South,3.5,-,N/A,,Clear,170,2013-01-19 01:55:00
9:15 PM,32.0,24.8,75,30.48,10.0,SSE,3.5,-,N/A,,Clear,160,2013-01-19 02:15:00
9:35 PM,30.2,24.8,80,30.48,10.0,South,3.5,-,N/A,,Clear,170,2013-01-19 02:35:00
9:55 PM,32.0,24.8,75,30.47,10.0,Calm,Calm,-,N/A,,Clear,0,2013-01-19 02:55:00
10:15 PM,32.0,24.8,75,30.46,10.0,South,5.8,-,N/A,,Clear,180,2013-01-19 03:15:00
10:35 PM,32.0,24.8,75,30.46,10.0,South,5.8,-,N/A,,Clear,180,2013-01-19 03:35:00
10:55 PM,32.0,24.8,75,30.45,10.0,South,4.6,-,N/A,,Clear,180,2013-01-19 03:55:00
11:15 PM,30.2,24.8,80,30.44,10.0,SSW,3.5,-,N/A,,Clear,200,2013-01-19 04:15:00
11:35 PM,30.2,24.8,80,30.43,10.0,SSW,5.8,-,N/A,,Clear,200,2013-01-19 04:35:00
11:55 PM,30.2,24.8,80,30.43,10.0,South,4.6,-,N/A,,Clear,190,2013-01-19 04:55:00